Wind_Speed
21 21 25 18 17 14 10 9 9 13 18 18 21 25 26 26 29 30 25 24 23 23 22 31 33 31 28 30 30 30 30 29 28 28 29 28 28 31 31 31 31 31 32 32
18 22 17 14 13 19 16 8 11 10 15 20 20 28 29 29 29 28 28 26 24 22 27 32 31 25 24 23 24 24 25 26 27 29 30 29 30 31 31 30 30 31 32 32
16 7 16 17 20 20 19 17 14 12 11 20 20 26 15 16 17 21 21 20 23 27 29 26 22 21 22 23 23 24 25 24 24 25 27 28 28 26 26 26 27 28 31 29
19 15 12 20 17 16 12 12 14 16 9 5 5 9 14 13 18 17 14 11 18 17 20 21 20 20 21 23 24 24 25 25 24 25 25 25 24 22 21 23 24 25 26 26
15 16 21 18 14 16 11 12 11 8 10 13 11 9 8 4 10 11 16 15 19 15 16 14 15 19 24 28 28 27 25 24 22 18 17 16 17 17 19 20 20 21 22 22
16 14 17 17 14 15 12 9 5 6 5 5 15 15 6 11 8 9 16 17 16 16 10 14 18 20 23 24 24 22 18 15 15 14 13 13 14 15 15 16 18 19 21 23
23 18 17 16 18 19 16 15 5 2 2 5 3 12 20 6 4 6 12 19 21 17 11 16 20 21 22 19 17 16 16 15 13 12 12 14 15 16 17 18 19 20 22 21
19 9 22 18 23 15 24 19 5 4 2 2 6 11 7 5 13 22 28 26 22 20 14 19 15 16 13 13 15 16 16 16 16 17 17 18 18 18 19 19 20 21 20 20
19 11 9 19 22 16 18 22 13 5 7 3 9 17 26 31 26 27 23 24 25 24 17 17 14 19 15 15 18 19 19 19 19 20 20 21 20 20 20 21 21 21 21 21
11 7 12 16 20 25 14 16 11 6 2 5 7 15 16 17 13 10 17 18 17 20 19 16 17 19 21 25 29 27 23 22 21 21 21 21 21 21 22 22 22 23 24 25
21 20 12 16 20 24 23 17 10 11 12 3 2 3 7 4 7 7 10 13 17 17 16 14 19 17 18 22 24 23 24 24 23 23 22 22 22 22 23 24 24 26 29 31
33 13 13 21 14 16 21 25 29 18 8 20 19 18 10 4 7 7 8 10 13 16 17 21 20 24 30 31 27 29 30 27 25 24 24 25 24 27 24 24 27 30 34 36
31 16 10 9 15 18 27 27 26 29 22 26 11 4 5 2 8 10 14 15 18 25 29 34 36 36 37 36 32 28 27 28 27 26 27 27 28 28 28 29 29 36 33 25
20 13 18 11 5 10 26 29 28 29 27 25 41 34 37 30 27 28 32 32 28 29 38 37 39 39 35 30 31 29 26 27 27 28 29 31 33 31 33 32 31 30 29 29
14 12 14 18 11 10 10 11 15 27 32 31 34 38 34 32 35 31 29 28 31 40 41 44 43 38 34 29 28 28 29 31 30 32 34 36 38 38 36 34 33 33 29 29
20 14 13 16 20 19 22 24 24 25 25 32 37 52 40 43 43 39 40 44 41 42 44 41 39 37 32 31 30 30 30 31 32 34 36 39 42 43 38 35 32 25 26 28
24 24 15 8 15 19 28 29 30 32 34 36 45 55 45 48 47 50 50 45 44 37 37 40 38 41 38 38 35 38 34 33 35 37 39 42 42 45 40 37 27 25 26 28
24 21 15 7 8 5 26 29 21 16 21 33 43 48 46 47 46 45 36 32 30 36 36 38 37 41 45 44 44 40 37 36 37 39 42 43 45 48 39 33 21 23 28 29
26 21 13 10 17 29 39 25 26 30 45 42 44 49 47 47 48 51 42 45 51 43 38 41 43 39 36 37 38 38 39 38 39 41 42 44 44 40 37 23 21 26 27 28
28 22 20 14 6 10 39 27 23 17 48 35 35 33 35 22 33 36 32 30 35 40 44 42 41 39 37 34 34 33 35 37 40 39 40 41 38 33 17 22 24 24 25 28
26 31 34 37 26 29 47 37 28 19 54 40 41 39 36 36 40 41 42 42 38 36 39 41 42 39 39 34 33 31 33 37 39 38 36 33 24 14 21 24 24 24 27 30
30 28 28 24 21 26 41 32 28 33 32 33 35 36 38 35 33 36 36 37 36 37 39 39 36 35 35 31 32 31 33 35 34 30 30 20 14 19 23 23 24 26 28 30
26 34 32 29 33 39 38 34 35 36 39 41 43 43 43 44 45 47 46 42 42 44 45 42 41 32 34 30 31 33 31 26 24 21 14 14 19 21 21 22 25 27 29 32
32 34 39 43 48 50 49 47 45 43 43 43 41 41 45 43 45 46 43 43 43 48 49 44 42 37 31 30 29 22 21 21 14 10 14 18 20 19 20 23 26 28 30 31
38 37 40 44 48 47 45 45 44 39 40 40 39 40 40 42 44 42 41 44 45 48 49 50 38 36 27 18 16 13 13 10 10 14 16 18 17 18 22 25 27 29 29 29
41 44 46 48 47 45 46 45 45 44 38 37 36 42 41 39 37 39 42 43 46 50 55 38 33 26 14 13 12 9 10 11 12 14 14 15 17 21 25 27 28 28 28 30
Wind_Direction
225 223 222 223 213 196 198 214 224 230 248 252 254 261 257 256 260 268 276 274 272 271 271 265 270 275 276 276 278 278 279 279 278 276 274 274 274 273 272 274 280 284 283 282
218 224 219 209 213 222 235 217 221 246 261 275 274 271 266 269 275 276 271 268 270 266 260 266 277 278 277 279 279 281 279 278 275 274 273 275 275 276 275 276 276 279 280 280
210 251 219 205 205 212 216 226 218 245 270 278 294 297 285 270 271 266 274 270 260 257 263 273 275 279 281 282 282 280 279 279 278 276 273 272 273 275 275 276 277 274 274 279
223 213 200 208 218 218 219 239 229 232 260 246 318 296 249 267 276 279 267 250 258 258 263 270 276 278 279 279 278 280 280 280 281 281 273 268 269 273 274 272 272 273 277 279
211 207 223 220 220 205 210 220 235 247 251 279 277 251 291 295 278 289 246 262 264 256 260 257 269 275 277 278 281 284 286 285 284 281 275 267 266 266 267 272 277 282 284 284
224 215 209 225 205 204 206 203 197 223 228 264 261 225 252 264 262 225 239 258 241 267 249 276 281 286 288 285 280 282 281 283 282 275 266 261 261 263 266 273 279 283 285 283
214 219 214 204 200 198 203 162 150 186 210 229 202 211 241 185 213 229 244 261 266 229 275 287 290 291 288 281 279 276 278 281 277 270 263 262 262 265 272 278 284 284 283 283
194 195 206 201 201 200 199 178 164 233 196 8 250 235 251 262 244 257 262 262 270 234 273 292 293 304 298 273 271 271 273 272 270 267 264 262 263 267 274 283 286 284 281 279
193 200 198 211 206 199 202 209 208 299 307 308 243 264 272 275 269 266 272 260 260 243 279 283 284 301 294 293 298 293 285 275 269 267 265 264 264 272 282 284 281 278 279 280
182 166 200 201 198 201 184 201 202 194 172 243 253 256 254 281 266 250 271 255 255 265 265 274 288 287 287 294 298 297 289 280 272 269 271 269 269 282 293 288 283 283 282 284
202 208 194 200 206 207 199 192 195 211 217 204 307 243 236 307 176 223 241 247 258 252 258 278 303 285 296 298 296 293 290 282 273 272 275 270 274 287 299 295 290 292 292 292
209 201 211 218 241 230 227 236 218 225 203 233 246 247 217 193 176 225 228 277 269 253 268 297 293 281 290 297 291 293 293 289 278 273 273 270 273 284 293 292 293 293 294 292
208 212 184 186 217 210 216 218 219 226 240 248 237 235 157 76 250 260 289 294 272 272 282 290 293 290 293 294 290 280 289 289 278 272 270 269 270 279 292 290 289 298 293 294
187 206 201 187 188 201 219 227 229 229 242 254 249 257 252 260 277 281 290 289 286 283 284 290 297 297 294 292 289 274 281 284 278 272 270 269 269 273 283 291 299 300 291 291
207 219 221 222 229 235 228 236 238 240 244 250 263 263 264 267 269 269 269 271 278 282 286 291 292 293 291 291 288 273 275 282 279 273 271 270 273 277 276 284 293 296 286 288
218 221 226 232 238 246 255 254 249 246 249 256 263 265 271 275 278 281 283 287 282 285 291 288 289 291 290 286 276 276 278 278 277 275 272 271 274 284 281 280 290 280 278 283
234 228 218 226 245 268 269 262 265 268 268 268 268 276 286 282 281 283 283 282 280 275 290 293 288 287 284 285 290 271 272 276 274 272 271 271 276 278 279 278 275 273 279 281
230 228 216 212 213 250 256 273 266 258 264 272 282 286 288 288 289 287 285 282 277 286 286 293 296 290 284 282 283 282 267 270 274 272 271 273 275 278 270 274 268 279 282 281
219 217 216 216 217 259 263 253 263 273 282 280 281 289 291 291 288 285 283 281 283 288 288 292 294 296 296 290 284 276 267 268 270 271 271 274 276 269 279 263 270 272 279 284
210 221 231 219 217 235 271 279 282 266 273 290 289 292 304 298 287 293 298 290 285 287 291 289 288 289 292 290 281 269 267 268 269 271 272 276 273 267 268 274 276 279 285 288
229 239 241 243 242 258 269 263 281 231 278 293 294 288 284 280 283 286 291 291 289 290 297 295 290 289 290 285 277 270 265 268 269 268 271 268 257 269 268 274 279 285 289 290
237 224 225 231 241 261 271 276 246 291 296 295 300 290 287 287 285 290 292 298 284 289 302 302 295 287 285 281 273 269 263 261 264 266 262 253 266 271 273 278 282 284 288 295
226 228 233 230 236 268 279 280 286 285 287 289 296 291 287 285 284 286 286 285 286 287 297 299 292 285 281 278 268 260 256 257 256 247 260 271 265 266 273 280 285 292 298 301
250 256 249 252 254 262 269 275 279 278 283 286 283 286 280 279 281 282 282 284 283 284 291 293 292 285 273 266 261 255 249 245 235 259 261 262 265 274 281 287 293 297 303 308
267 268 259 258 266 272 273 275 284 280 289 288 283 285 281 274 276 274 278 282 283 285 289 292 278 277 256 259 241 228 228 246 241 252 260 266 275 284 291 294 300 308 311 311
263 266 256 257 277 274 279 279 285 288 287 291 280 288 285 271 270 272 281 282 284 284 284 275 265 249 212 220 214 220 227 251 259 260 269 281 289 295 301 307 310 311 312 315
Height
3111 3113 3112 3117 3122 3125 3127 3129 3131 3132 3130 3130 3130 3129 3130 3132 3132 3133 3136 3137 3139 3140 3140 3133 3135 3137 3137 3137 3137 3137 3137 3137 3138 3137 3137 3137 3137 3135 3136 3135 3135 3134 3133 3132
3108 3107 3112 3115 3120 3123 3125 3126 3128 3129 3128 3126 3126 3122 3123 3125 3127 3129 3129 3130 3132 3133 3131 3128 3129 3132 3132 3131 3130 3130 3130 3131 3131 3130 3129 3130 3129 3129 3129 3130 3130 3129 3127 3127
3103 3107 3108 3111 3115 3118 3121 3123 3125 3127 3127 3125 3121 3117 3116 3118 3120 3121 3123 3124 3125 3125 3123 3125 3125 3125 3126 3126 3125 3125 3124 3124 3125 3124 3123 3123 3123 3123 3123 3123 3123 3123 3121 3122
3101 3104 3107 3108 3112 3115 3118 3120 3121 3123 3124 3124 3122 3117 3113 3114 3117 3118 3118 3119 3119 3121 3121 3122 3122 3122 3121 3121 3120 3119 3118 3118 3118 3118 3117 3117 3117 3117 3118 3118 3117 3117 3117 3117
3098 3099 3102 3106 3110 3113 3116 3117 3120 3119 3122 3120 3119 3121 3106 3110 3114 3114 3114 3116 3116 3116 3118 3119 3119 3118 3117 3115 3115 3114 3114 3113 3112 3112 3112 3113 3113 3114 3113 3113 3113 3112 3112 3112
3097 3098 3100 3104 3108 3109 3111 3115 3117 3119 3119 3117 3112 3115 3106 3107 3110 3112 3111 3111 3112 3113 3115 3115 3114 3112 3111 3110 3110 3109 3110 3109 3109 3108 3108 3109 3109 3109 3109 3109 3108 3108 3108 3107
3092 3094 3096 3100 3104 3106 3109 3112 3116 3119 3118 3113 3110 3110 3102 3105 3108 3109 3107 3108 3109 3110 3112 3111 3110 3109 3107 3107 3107 3107 3107 3106 3106 3106 3106 3106 3106 3106 3105 3105 3104 3103 3103 3102
3086 3091 3091 3095 3099 3101 3103 3107 3108 3109 3108 3108 3109 3102 3098 3101 3105 3105 3105 3103 3106 3107 3108 3108 3106 3105 3104 3104 3104 3104 3104 3103 3103 3103 3102 3102 3101 3101 3100 3100 3099 3098 3097 3097
3081 3086 3087 3092 3097 3099 3101 3103 3106 3105 3106 3107 3101 3097 3097 3097 3100 3101 3101 3101 3101 3103 3104 3103 3103 3102 3102 3101 3100 3099 3099 3099 3098 3098 3098 3097 3097 3096 3096 3095 3094 3093 3092 3091
3078 3082 3084 3088 3091 3094 3095 3099 3103 3105 3110 3109 3094 3094 3093 3092 3094 3097 3097 3097 3097 3099 3101 3101 3099 3098 3097 3096 3094 3094 3093 3093 3093 3092 3092 3093 3092 3092 3091 3090 3089 3088 3087 3086
3074 3077 3083 3084 3085 3088 3092 3093 3097 3100 3100 3098 3095 3092 3090 3089 3091 3093 3093 3094 3095 3096 3097 3096 3096 3095 3094 3093 3091 3090 3089 3087 3087 3087 3087 3087 3087 3086 3085 3084 3083 3082 3081 3079
3070 3075 3076 3078 3081 3085 3088 3090 3092 3092 3094 3092 3091 3085 3088 3090 3092 3092 3092 3093 3092 3093 3092 3092 3091 3090 3089 3088 3086 3084 3083 3082 3081 3081 3082 3081 3081 3080 3079 3078 3076 3074 3072 3070
3066 3067 3072 3075 3079 3080 3079 3083 3085 3087 3089 3084 3088 3083 3084 3085 3087 3089 3090 3089 3089 3088 3087 3086 3086 3085 3083 3081 3079 3078 3077 3076 3075 3075 3075 3074 3074 3073 3072 3071 3069 3067 3064 3062
3061 3064 3066 3069 3069 3072 3074 3077 3079 3081 3080 3082 3070 3079 3081 3083 3086 3085 3085 3084 3081 3081 3081 3081 3079 3077 3075 3073 3071 3070 3070 3069 3068 3067 3067 3066 3066 3065 3063 3062 3060 3058 3057 3055
3060 3061 3064 3067 3068 3069 3070 3072 3073 3074 3076 3075 3071 3069 3076 3077 3077 3077 3077 3077 3075 3072 3071 3072 3069 3067 3065 3065 3063 3063 3062 3061 3060 3060 3059 3058 3057 3057 3055 3054 3052 3050 3049 3048
3056 3057 3061 3063 3064 3064 3065 3066 3068 3070 3071 3067 3064 3051 3070 3069 3068 3068 3067 3068 3067 3064 3060 3060 3058 3057 3056 3055 3055 3054 3054 3053 3052 3051 3050 3050 3049 3048 3046 3045 3042 3041 3040 3039
3053 3054 3057 3059 3061 3061 3055 3056 3061 3062 3063 3063 3055 3046 3062 3057 3057 3056 3055 3058 3055 3054 3052 3049 3049 3047 3046 3045 3045 3044 3044 3044 3043 3042 3041 3040 3040 3039 3037 3035 3033 3032 3031 3030
3049 3051 3053 3055 3057 3057 3046 3051 3053 3054 3055 3053 3049 3046 3049 3047 3046 3043 3047 3046 3045 3045 3043 3039 3038 3036 3034 3034 3033 3033 3033 3033 3033 3033 3032 3031 3030 3029 3026 3024 3024 3025 3025 3023
3043 3048 3048 3049 3049 3043 3038 3043 3047 3049 3040 3045 3041 3036 3038 3038 3036 3028 3036 3036 3034 3033 3033 3030 3027 3026 3024 3021 3020 3020 3021 3022 3022 3021 3021 3021 3020 3020 3017 3016 3017 3017 3016 3015
3037 3041 3044 3045 3044 3037 3028 3033 3039 3043 3022 3037 3033 3031 3031 3031 3026 3022 3024 3024 3024 3023 3020 3017 3016 3015 3014 3011 3009 3009 3010 3011 3012 3011 3011 3011 3011 3009 3008 3011 3011 3010 3008 3007
3030 3033 3034 3035 3036 3020 3022 3026 3034 3035 3016 3027 3026 3024 3024 3022 3022 3016 3014 3013 3012 3012 3009 3006 3004 3003 3002 3000 3000 2999 3000 3001 3002 3002 3002 3002 3002 3002 3004 3004 3004 3001 3000 3000
3018 3022 3022 3028 3030 3012 3015 3017 3021 3018 3014 3015 3015 3013 3011 3012 3010 3008 3005 3003 3002 3002 3000 2998 2994 2992 2991 2990 2989 2990 2991 2992 2993 2994 2994 2994 2995 2997 2998 2996 2995 2995 2993 2991
3011 3010 3012 3014 3008 3006 3008 3007 3009 3009 3007 3006 3005 3004 3002 2999 2999 2998 2995 2993 2992 2992 2990 2988 2985 2982 2982 2981 2980 2980 2981 2983 2985 2987 2988 2990 2991 2991 2990 2989 2989 2988 2985 2981
3001 3003 3003 3005 2999 2996 3000 3001 3001 3000 2999 2997 2996 2992 2990 2987 2985 2983 2983 2982 2981 2980 2979 2978 2975 2973 2972 2971 2971 2973 2975 2978 2979 2981 2983 2985 2985 2984 2983 2983 2981 2979 2975 2970
2992 2993 2992 2990 2989 2989 2988 2987 2987 2988 2988 2985 2983 2980 2977 2975 2972 2971 2970 2970 2968 2967 2967 2966 2965 2965 2963 2963 2966 2967 2971 2973 2974 2977 2978 2979 2978 2977 2976 2975 2972 2968 2964 2961
2980 2979 2980 2977 2978 2978 2976 2976 2976 2976 2975 2973 2971 2968 2965 2962 2961 2959 2959 2958 2957 2955 2955 2954 2955 2955 2956 2961 2964 2966 2968 2969 2971 2973 2972 2972 2970 2970 2968 2964 2961 2958 2956 2952